User: anonymous   Login
Location: Waning Moon II Observatory
(30.3730°N, 89.7620°W)
Time: 16:01:27
(UTC-06:00)
Language:

Cosmos 1825 Rocket - Orbit

View from above orbital plane
View from above orbital plane
View from above satellite
View from above satellite

Ground track
Ground track

The orbit data is extracted from the following two-line orbital elements,

1 17567U 87024B   16040.89751215 +.00000267 +00000-0 +29371-4 0  9997
2 17567 082.5307 300.6767 0019466 168.8781 191.2869 14.83553487542248
Epoch (UTC): 09 February 2016 21:32:25
Eccentricity: 0.0019466
inclination: 82.5307°
perigee height: 604 km
apogee height: 632 km
right ascension of ascending node: 300.6767°
argument of perigee: 168.8781°
revolutions per day: 14.83553487
mean anomaly at epoch: 191.2869°
orbit number at epoch: 54224

The dashed part of the orbit path shows where the satellite is in the earth's shadow,  

DLR